This is the latest recevied weather packets stored in our database for station/object K9RJT. If no packets are shown the sender has not sent any weather packets the latest 10 day(s).
| Time | Temp. | Humidity | Pressure | Rain* | Wind** | Luminosity | Snow |
|---|---|---|---|---|---|---|---|
| 1777751672 | 23.89° C | 33% | 1009.6 hPa | 0 mm | - | 161 W/m² | - |
| 1777751368 | 23.33° C | 33% | 1009.8 hPa | 0 mm | - | 721 W/m² | - |
| 1777751065 | 22.78° C | 32% | 1009.6 hPa | 0 mm | - | 729 W/m² | - |
| 1777750761 | 22.78° C | 33% | 1010 hPa | 0 mm | - | 663 W/m² | - |
| 1777750458 | 22.78° C | 31% | 1010 hPa | 0 mm | - | 652 W/m² | - |
| 1777750154 | 22.78° C | 31% | 1009.8 hPa | 0 mm | - | 649 W/m² | - |
| 1777749851 | 22.78° C | 31% | 1010.1 hPa | 0 mm | - | 655 W/m² | - |
| 1777749548 | 22.78° C | 31% | 1009.9 hPa | 0 mm | - | 681 W/m² | - |
| 1777749246 | 22.22° C | 30% | 1010 hPa | 0 mm | - | 623 W/m² | - |
| 1777748943 | 23.89° C | 29% | 1010.1 hPa | 0 mm | - | 678 W/m² | - |
| 1777748640 | 22.22° C | 31% | 1010.1 hPa | 0 mm | - | 677 W/m² | - |
| 1777748336 | 22.22° C | 32% | 1010.2 hPa | 0 mm | - | 657 W/m² | - |
| 1777748031 | 22.22° C | 31% | 1010.1 hPa | 0 mm | - | 611 W/m² | - |
| 1777747729 | 21.67° C | 32% | 1010.1 hPa | 0 mm | - | 535 W/m² | - |
| 1777747424 | 21.67° C | 35% | 1010.3 hPa | 0 mm | - | 536 W/m² | - |
| 1777747121 | 21.11° C | 37% | 1010.5 hPa | 0 mm | - | 619 W/m² | - |
| 1777746817 | 20.56° C | 38% | 1010.4 hPa | 0 mm | - | 530 W/m² | - |
| 1777746512 | 20.56° C | 38% | 1010.6 hPa | 0 mm | - | 383 W/m² | - |
| 1777746208 | 20° C | 39% | 1010.5 hPa | 0 mm | - | 356 W/m² | - |
| 1777745905 | 19.44° C | 39% | 1010.5 hPa | 0 mm | - | 361 W/m² | - |
| 1777745604 | 20° C | 39% | 1010.6 hPa | 0 mm | - | 322 W/m² | - |
| 1777745301 | 20° C | 39% | 1010.6 hPa | 0 mm | - | 415 W/m² | - |
| 1777744998 | 20° C | 40% | 1010.5 hPa | 0 mm | - | 424 W/m² | - |
| 1777744694 | 20° C | 40% | 1010.9 hPa | 0 mm | - | 349 W/m² | - |
| 1777744388 | 19.44° C | 40% | 1010.9 hPa | 0 mm | - | 328 W/m² | - |
* Rain latest hour (hover to see other rain measurements)
** Current wind speed in m/s (hover to see current wind gust speed)